Wind_Speed
19 19 19 19 19 19 19 20 21 21 22 24 25 26 26 25 24 24 24 23 21 20 19 19 19 19 17 16 15 14 13 11 11 10 9 8 8 9 10 10 11 10 9 9 10 12 14 16 17 18 19 20 20 21 22 23 25 25 26 28 30 31 30 28 28 27 26 26 25 25 25 24 23 24 25 26 26 28 29 29 29 29 27 27 26 24 23 23
19 19 19 19 19 19 20 21 22 22 24 26 27 27 26 25 25 25 24 23 21 20 19 19 19 19 18 17 15 14 13 11 10 10 9 8 8 8 8 9 10 10 8 8 9 10 12 14 15 16 17 18 18 19 21 23 25 26 26 27 28 30 31 29 27 25 25 25 25 25 24 24 23 23 23 24 25 26 27 27 27 27 26 26 25 24 23 22
19 19 19 19 19 20 21 22 23 24 25 27 27 27 26 25 25 25 24 23 21 21 20 19 19 20 19 17 16 15 13 12 10 9 9 8 8 7 7 8 8 9 8 7 8 8 9 11 12 14 15 16 16 17 18 20 23 25 26 26 25 27 29 29 28 26 24 24 25 26 25 24 24 23 23 23 24 25 25 25 25 25 25 24 24 24 22 21
19 19 19 19 20 21 22 23 24 25 27 28 28 28 26 26 26 26 24 23 22 21 20 20 20 20 19 18 17 15 14 12 10 9 9 9 8 7 7 7 7 8 7 7 7 8 8 8 9 11 13 14 15 15 16 17 20 22 24 24 24 24 25 27 28 27 26 25 26 28 28 27 26 25 25 25 25 26 25 25 24 24 24 23 23 22 21 21
19 19 20 20 21 22 23 24 25 26 28 29 29 28 27 26 26 26 25 23 23 22 21 20 20 20 20 19 18 16 15 13 11 9 9 9 8 8 7 6 6 6 7 6 7 7 7 6 7 8 9 10 12 13 14 15 16 18 21 22 22 22 21 22 25 26 27 27 28 30 31 30 29 28 27 27 27 26 26 25 24 23 23 22 22 21 20 20
20 20 20 21 21 23 24 25 25 27 29 29 29 28 27 26 27 27 25 24 24 22 21 21 21 21 20 20 19 17 16 14 12 10 9 9 9 8 7 6 6 6 6 6 6 7 6 6 5 6 6 7 9 11 11 12 13 14 16 17 19 19 18 17 19 22 24 25 27 28 29 29 29 28 27 26 25 25 25 26 25 24 23 22 21 21 20 19
20 21 21 21 22 24 25 26 26 28 30 30 29 28 26 26 27 27 26 25 24 23 22 21 21 21 21 21 19 18 17 15 13 11 9 8 8 8 7 6 6 6 5 5 5 6 6 6 5 5 6 6 7 8 8 10 11 11 11 13 14 15 15 14 14 17 21 22 23 23 23 23 24 24 24 23 22 22 23 24 24 24 23 22 22 21 21 20
21 21 22 22 23 25 26 26 27 29 30 30 29 28 26 26 27 28 26 25 24 23 22 21 22 22 22 21 20 19 17 16 14 12 10 9 8 7 7 7 6 6 5 5 5 5 6 6 4 5 5 6 6 6 5 7 8 9 9 9 10 12 13 13 12 13 17 19 20 19 19 19 20 20 20 20 20 20 20 21 22 22 21 22 22 21 21 21
22 22 23 23 24 25 26 27 28 30 31 31 30 28 26 26 27 28 27 25 24 23 22 22 22 23 23 22 20 19 18 16 15 13 12 10 9 8 7 7 7 6 6 5 5 5 5 5 4 4 5 6 6 4 3 4 6 7 8 8 8 9 10 11 12 11 13 16 17 17 17 17 18 18 18 17 17 18 18 19 19 19 19 18 18 18 19 20
23 23 23 24 25 26 27 28 29 30 31 31 30 28 27 27 28 29 28 26 25 24 23 23 23 23 23 22 21 20 18 17 16 15 13 12 11 9 8 8 7 7 6 6 5 5 5 5 4 4 4 4 4 4 3 3 4 5 6 6 6 7 8 8 9 10 11 13 14 14 15 15 15 15 15 15 15 15 16 16 16 17 17 17 17 16 16 17
23 24 24 25 25 26 28 29 30 31 31 32 30 28 27 27 28 29 28 27 25 24 24 24 23 22 22 22 21 21 20 19 17 16 15 13 12 11 10 9 8 7 7 6 6 5 5 5 4 3 3 3 3 3 2 3 4 5 5 5 5 5 6 6 7 7 9 10 11 11 12 13 13 13 13 12 12 12 13 13 13 14 15 16 16 15 15 15
24 25 25 26 26 27 29 30 30 31 32 32 31 29 27 27 28 29 29 28 26 26 25 24 23 22 22 21 21 22 21 20 19 17 16 15 14 12 11 10 9 8 7 6 6 5 5 5 4 3 3 2 2 2 1 2 3 4 5 5 5 5 4 4 5 5 7 8 9 9 10 11 11 11 11 10 10 10 10 11 12 12 13 13 13 13 12 12
25 26 26 26 27 28 29 31 31 31 32 32 32 30 28 27 27 28 29 28 28 27 26 25 23 22 22 21 21 22 22 21 21 19 18 17 15 14 13 11 10 9 8 7 6 5 5 4 4 3 2 1 2 1 1 1 1 2 3 4 5 4 3 3 3 3 5 7 7 7 7 9 9 8 8 7 7 8 8 8 9 10 10 11 11 10 9 9
26 26 27 27 27 28 30 31 32 32 32 33 32 31 29 27 27 27 28 28 28 28 27 25 24 23 23 22 22 23 22 22 21 20 19 18 17 16 15 13 12 10 9 8 7 6 5 5 4 3 2 2 1 0 0 1 1 1 1 2 2 2 2 2 2 2 3 5 5 5 6 7 7 6 5 4 5 6 6 6 6 6 7 8 8 8 7 7
26 27 27 28 28 29 31 32 32 32 33 33 33 31 29 28 27 27 27 28 28 28 28 26 25 24 23 23 23 22 22 22 21 20 20 19 19 18 17 16 14 13 12 11 10 9 7 6 5 5 4 3 2 2 2 2 2 2 2 1 0 1 1 1 1 0 2 3 3 4 5 6 5 4 3 3 3 4 5 5 5 4 4 5 6 6 5 5
27 27 28 28 29 30 31 32 32 33 33 33 33 32 30 28 28 27 27 28 28 28 28 27 26 25 24 24 24 22 21 20 20 20 21 20 20 20 19 18 17 15 14 13 12 11 10 9 8 7 6 5 5 5 5 4 3 3 4 4 3 3 2 1 2 2 1 1 1 2 3 4 4 4 2 2 2 3 3 4 4 3 3 4 5 5 4 3
28 28 29 29 30 31 32 33 33 33 33 33 33 33 32 30 28 28 28 28 28 29 29 28 28 27 26 26 24 23 21 20 20 20 21 21 22 21 21 20 19 18 17 16 15 13 12 12 10 9 8 8 8 8 8 7 6 6 6 6 6 6 5 4 4 4 3 2 2 1 1 2 2 2 3 3 3 1 1 2 3 3 3 3 3 3 3 2
28 29 29 30 31 32 33 33 33 33 33 34 34 34 33 32 30 29 28 29 29 29 29 29 29 28 28 27 26 24 22 22 21 21 21 21 22 22 22 22 21 20 19 18 17 16 14 13 12 11 11 11 11 12 11 9 8 9 9 8 8 9 9 8 7 6 5 5 4 4 3 2 3 4 5 6 6 5 4 2 1 1 2 3 3 2 2 3
29 29 30 31 32 32 33 34 34 33 33 34 35 35 34 33 32 31 30 29 29 29 30 30 30 29 29 29 28 26 24 24 23 22 22 22 22 22 23 22 22 21 21 20 18 17 16 15 14 13 13 14 15 15 13 12 11 11 11 10 10 11 12 11 10 9 8 7 6 6 6 7 8 8 8 7 7 7 7 6 5 4 4 5 5 6 7 7
29 30 31 31 32 33 34 35 35 34 34 34 35 35 35 35 34 33 32 31 30 30 31 31 30 30 30 30 29 28 27 27 26 25 24 23 23 23 23 22 22 22 22 21 20 19 18 17 16 15 16 17 17 16 15 14 13 13 12 12 11 12 13 13 12 11 11 10 9 9 10 11 12 13 12 11 10 9 9 9 9 7 6 6 7 8 9 9
30 30 31 32 33 34 34 35 35 35 34 34 35 35 35 35 35 34 34 33 32 32 32 31 31 31 31 30 30 29 29 28 28 27 26 25 24 24 23 23 22 22 22 22 20 19 19 18 18 19 20 19 19 18 16 15 15 14 13 13 13 13 14 15 14 13 13 13 12 12 13 14 14 15 15 15 13 12 12 12 12 11 9 9 10 10 12 12
31 31 32 33 34 34 35 35 35 35 35 35 35 36 36 36 36 36 35 35 34 33 32 32 32 31 31 31 31 31 30 30 30 29 27 26 25 24 24 23 23 23 23 22 21 20 20 19 20 22 22 20 20 20 19 17 17 16 16 15 15 16 17 16 16 15 15 15 15 15 16 17 17 17 17 17 16 15 15 15 16 16 15 14 14 14 15 15
31 32 33 33 34 35 35 35 36 36 35 35 35 36 36 37 37 36 36 36 36 35 34 33 32 31 32 32 33 33 32 32 32 31 29 28 27 26 25 25 25 25 24 22 21 21 20 21 22 23 22 22 21 21 20 20 20 19 18 18 17 18 19 19 18 18 18 18 18 18 18 20 20 19 19 18 18 18 18 18 19 20 19 18 19 19 19 19
32 32 33 34 34 35 35 36 36 36 36 35 35 35 36 37 37 37 37 37 37 36 36 34 33 33 33 33 34 34 34 34 33 32 31 30 29 28 28 28 27 27 25 24 23 22 22 23 23 22 22 23 23 22 22 22 23 23 22 21 20 20 20 20 21 21 21 20 21 21 22 25 24 22 21 20 19 19 20 20 21 21 22 21 22 23 23 22
32 33 33 34 35 35 36 36 36 36 36 36 35 35 36 36 37 38 38 38 38 37 37 36 35 35 34 34 34 34 35 35 34 34 33 32 32 31 31 30 29 28 27 26 26 25 24 25 24 23 22 23 23 24 24 25 26 26 26 24 23 22 23 23 22 23 24 24 23 24 26 29 28 24 23 23 23 23 23 23 23 23 23 24 24 26 26 26
33 34 34 35 36 36 36 36 37 36 36 36 36 36 36 36 37 37 38 38 38 38 38 37 37 36 36 35 35 35 36 36 35 36 36 35 35 34 33 32 31 30 30 29 29 27 26 26 25 24 24 24 25 25 26 28 29 29 29 27 26 26 26 26 24 25 27 27 26 27 29 31 31 28 26 26 26 27 27 26 26 26 26 27 28 29 29 30
34 35 35 36 36 37 37 37 37 37 37 37 37 37 37 37 37 37 37 38 38 38 38 38 38 38 38 37 37 37 37 37 37 37 37 37 37 36 35 35 33 33 32 32 31 29 29 29 27 26 27 27 27 26 27 30 31 31 30 30 29 29 29 28 27 28 29 29 28 29 31 32 34 33 30 28 29 30 30 30 30 30 31 31 32 33 33 34
35 36 36 36 37 38 38 38 38 38 38 38 38 38 38 38 37 37 37 37 37 37 37 38 39 39 39 39 39 39 39 39 38 38 37 37 38 38 38 36 35 35 35 35 33 31 31 31 29 29 29 29 29 28 30 32 32 32 32 32 32 32 31 31 31 31 30 30 31 32 32 33 36 36 33 31 32 32 32 33 34 35 35 36 36 37 37 37
36 36 37 37 38 38 38 38 39 39 38 39 39 39 39 39 38 37 37 37 37 37 37 38 39 39 39 40 41 41 41 41 40 39 38 38 39 39 38 36 36 36 37 37 35 33 33 33 31 31 31 31 31 32 32 33 33 33 33 34 34 34 34 33 33 33 32 32 33 34 34 35 38 38 36 35 35 35 35 36 38 39 39 40 40 41 41 41
37 37 38 38 39 39 39 39 39 39 39 39 40 40 40 39 38 38 37 37 37 38 38 38 38 39 39 40 41 42 42 42 41 40 40 40 40 40 38 37 37 38 39 38 37 35 34 34 33 33 34 34 35 35 35 35 35 35 35 35 35 35 36 35 35 35 34 34 35 36 36 36 38 39 39 38 38 38 39 40 41 42 43 44 44 44 45 45
38 38 39 39 39 40 40 40 40 40 40 40 40 41 40 39 39 38 38 39 38 38 38 38 39 39 39 39 40 41 41 41 41 41 41 41 42 42 40 39 39 40 41 41 39 37 36 36 36 36 37 38 39 38 38 37 37 37 37 36 36 36 37 36 37 37 36 37 39 39 39 38 39 41 41 41 41 41 42 42 43 44 45 46 46 47 48 48
40 40 40 40 40 41 41 41 41 41 41 41 41 41 41 40 38 38 40 40 39 39 39 39 40 40 40 40 40 40 40 40 41 41 41 42 43 43 42 41 41 42 43 43 42 41 39 39 39 39 40 41 41 41 40 39 39 39 39 38 37 38 39 37 37 38 38 39 42 42 41 39 40 42 43 43 43 44 44 44 44 45 46 47 47 48 49 50
42 42 42 42 42 42 42 42 42 42 42 42 42 42 42 40 38 40 42 41 39 40 41 41 41 41 41 40 40 40 40 40 40 40 41 42 42 42 42 42 42 43 44 44 44 43 42 42 41 42 42 42 43 43 42 42 41 40 39 39 38 41 42 39 39 40 41 42 44 43 43 41 41 43 45 45 46 46 46 46 47 47 48 48 49 49 50 52
44 44 44 44 44 44 43 43 43 43 43 43 43 43 41 39 40 43 44 41 41 41 42 42 41 42 41 41 41 41 41 40 40 41 41 41 41 40 40 41 42 42 43 45 44 43 44 44 43 43 43 44 44 44 44 43 42 41 40 40 40 42 44 42 42 43 44 46 47 46 44 43 44 46 47 48 48 48 49 50 50 50 51 51 51 52 53 54
46 46 46 46 46 46 46 46 45 45 45 44 44 43 40 40 43 45 44 43 42 43 43 43 43 43 43 42 43 42 42 41 41 42 41 40 40 39 40 40 40 41 42 43 44 44 45 44 43 44 44 44 44 44 44 42 43 42 41 41 42 43 45 45 44 44 45 47 47 46 46 46 47 49 50 50 51 51 52 53 53 53 54 54 54 55 56 57
47 48 48 48 48 48 48 47 47 47 46 46 45 42 41 43 45 46 45 44 43 43 44 45 45 45 44 44 44 44 43 43 43 43 42 41 40 40 39 40 40 41 41 42 43 44 45 44 44 44 44 44 45 45 44 43 43 44 42 43 44 44 46 47 46 46 47 48 47 48 49 50 50 50 51 52 53 53 54 54 55 55 55 56 56 57 57 58
49 49 50 50 50 50 49 49 49 49 48 47 45 42 44 45 46 46 46 45 45 45 45 45 45 45 45 45 45 45 44 45 45 44 43 43 42 41 40 41 41 41 42 43 44 45 45 45 46 45 44 44 45 45 45 45 45 45 44 46 46 45 46 47 48 47 48 48 48 48 50 51 52 51 51 53 54 53 54 54 54 55 55 56 56 57 58 58
49 50 51 52 53 53 51 51 50 50 49 48 45 44 46 47 46 47 48 47 47 46 46 46 46 45 46 46 46 45 45 45 44 44 44 44 43 42 42 43 43 43 44 44 45 45 45 46 46 45 44 45 45 45 45 45 45 46 45 46 47 46 46 48 48 47 47 48 48 48 50 52 53 52 52 54 54 53 54 54 54 54 55 55 56 56 57 57
50 51 52 53 54 54 53 52 52 51 50 47 45 46 48 48 48 49 49 49 48 47 47 46 46 46 46 46 46 46 45 44 44 44 44 43 43 42 43 44 44 44 45 45 46 46 46 46 47 46 45 45 46 45 45 45 46 47 46 46 47 46 47 48 49 48 48 49 49 49 50 52 53 53 54 55 55 54 55 55 55 55 55 56 56 57 57 58
49 51 53 54 55 55 54 54 53 52 50 48 48 49 50 50 50 50 50 50 49 48 47 47 47 47 47 47 46 46 45 44 44 44 43 43 43 42 42 43 43 44 45 45 45 46 46 46 47 47 47 46 45 45 45 46 46 46 46 47 47 47 48 49 50 49 49 51 50 50 51 52 53 55 56 56 56 56 56 56 56 56 56 56 57 57 58 59
48 50 52 54 55 55 54 54 53 52 51 50 51 51 51 51 51 51 52 51 50 50 49 49 49 48 48 48 47 46 46 45 44 44 44 43 43 42 42 43 44 44 45 45 45 46 46 47 47 46 47 46 45 46 46 46 46 46 47 47 47 48 48 49 50 50 50 51 51 51 52 52 53 56 57 56 57 57 57 57 56 57 57 57 58 59 59 60
48 49 51 54 55 55 55 53 52 52 52 51 53 53 53 53 53 53 53 52 52 52 51 51 50 49 49 49 48 47 47 46 46 46 45 45 45 44 44 44 44 45 45 45 46 46 47 48 48 47 47 47 46 47 47 46 47 47 47 47 48 48 49 50 51 51 51 51 51 52 53 52 52 55 57 56 56 57 56 56 56 56 56 56 57 57 58 58
51 51 52 53 54 54 53 51 51 52 52 53 55 55 54 54 54 54 53 53 53 53 53 52 52 52 51 50 49 49 48 48 47 47 47 46 46 46 46 46 46 46 46 46 47 47 48 49 49 49 48 48 48 48 48 48 48 49 48 49 50 50 50 51 51 51 50 49 49 51 51 49 50 52 54 54 54 54 53 53 53 53 53 53 54 54 55 55
56 55 55 55 54 54 52 49 50 52 52 54 56 56 55 55 55 55 54 54 54 53 53 53 53 53 52 51 51 50 50 49 48 48 48 47 47 47 47 48 48 48 48 48 48 49 50 50 50 50 50 49 49 49 49 49 50 50 50 50 50 49 49 49 48 48 47 46 46 48 49 48 47 49 52 53 52 51 51 51 51 51 52 53 53 54 55 56
61 60 59 58 56 55 52 50 51 51 51 53 55 55 55 56 56 56 56 55 55 55 55 55 54 54 54 53 53 52 52 51 51 51 51 50 50 50 50 50 50 50 50 51 51 51 51 51 52 52 51 51 51 50 49 50 51 51 50 49 49 47 47 47 47 46 46 45 45 47 49 48 47 49 51 52 52 51 51 51 52 53 54 55 56 57 58 59
66 65 63 61 59 57 55 54 54 52 51 52 53 53 54 55 56 57 57 56 56 56 56 56 56 56 55 55 55 55 54 54 54 53 53 52 52 51 52 52 51 52 51 51 52 52 52 52 52 52 52 52 52 50 50 51 51 50 48 47 47 47 47 47 47 46 47 46 45 46 49 51 50 49 51 53 54 53 53 54 55 56 57 58 59 60 61 62
70 70 68 66 63 61 58 57 57 55 53 53 52 52 54 54 55 57 57 56 56 57 57 57 57 57 56 56 56 56 56 55 55 54 53 53 53 53 53 52 52 52 51 51 52 52 52 52 52 53 54 53 52 51 50 50 49 48 48 47 47 47 47 48 49 49 50 49 48 49 51 55 55 52 52 56 57 56 56 57 58 59 60 61 62 63 64 65
72 72 73 71 68 65 61 60 59 58 57 56 54 53 54 54 55 56 56 57 57 57 57 56 56 57 57 57 57 56 56 55 55 54 54 54 54 54 53 53 53 52 52 52 53 53 54 53 53 54 54 53 52 50 49 49 49 48 48 48 48 48 49 50 52 52 52 51 52 53 52 55 58 56 56 59 60 59 60 61 61 62 63 64 65 66 67 68
74 74 75 75 72 70 67 65 63 62 61 59 57 56 55 55 55 56 56 57 57 57 57 57 57 58 58 58 58 57 56 56 55 55 55 55 55 54 54 54 53 53 53 54 54 55 55 53 52 53 53 52 52 50 50 50 50 49 49 50 50 50 52 54 54 55 55 54 55 57 55 55 58 59 60 62 62 62 63 64 65 66 66 68 69 70 71 72
77 77 77 77 75 74 72 70 68 66 65 63 61 59 58 58 57 57 57 58 58 57 58 58 58 59 59 59 59 57 56 56 56 56 56 55 55 55 54 54 53 53 54 54 53 54 54 53 52 53 53 53 52 52 52 52 52 51 51 51 52 54 56 56 56 57 57 57 58 59 58 57 58 61 64 64 64 66 67 67 68 69 70 72 73 74 75 75
81 80 79 78 77 76 76 74 73 71 69 67 65 64 63 62 60 59 59 59 59 59 59 59 59 60 60 59 58 57 57 57 57 57 57 56 55 55 55 54 54 54 54 54 54 54 55 55 54 55 55 54 54 55 55 55 54 52 51 53 57 59 59 58 59 59 60 60 61 61 61 61 61 63 67 67 67 69 70 70 72 73 74 75 76 77 78 79
85 83 82 80 78 77 77 76 76 75 73 71 70 69 68 67 65 64 63 61 61 60 60 61 61 61 61 60 59 59 59 59 59 59 58 58 57 57 57 56 56 56 56 56 56 56 57 57 57 57 58 57 56 57 58 58 56 52 53 58 62 62 61 62 62 63 63 64 64 64 65 66 66 67 69 70 71 73 73 74 75 76 77 78 79 81 82 83
Wind_Direction
197 197 198 198 198 198 198 196 197 196 192 190 190 189 186 187 187 184 182 183 186 188 188 185 179 174 173 171 162 151 145 139 131 124 117 110 100 92 88 86 85 83 75 66 62 58 55 56 58 60 64 64 62 61 59 59 60 60 60 65 73 76 76 72 67 66 67 69 73 76 75 75 75 75 78 79 79 80 81 83 86 88 91 96 101 106 113 120
197 198 198 198 197 197 197 196 196 194 190 190 190 188 186 187 187 184 182 183 186 189 189 186 180 175 173 172 165 155 150 145 137 129 122 114 105 98 93 89 88 87 81 72 67 64 59 58 59 60 62 63 63 62 62 62 63 64 65 66 68 72 76 78 75 71 68 67 70 77 79 79 80 81 82 84 86 86 87 88 89 90 91 94 97 102 107 114
197 198 199 199 197 196 196 195 196 193 190 190 190 188 186 187 186 183 182 183 187 189 189 186 181 176 174 173 167 159 155 151 145 136 125 116 110 104 100 95 91 89 85 77 72 69 64 61 60 60 61 62 63 62 62 63 64 66 67 69 67 66 70 76 79 78 75 71 70 76 79 79 80 83 84 86 89 90 91 92 93 94 95 96 97 99 101 104
199 199 200 199 197 196 195 196 195 192 190 191 190 188 187 187 186 183 182 183 187 190 189 186 182 179 176 175 171 164 161 158 152 142 129 120 114 110 108 104 98 93 89 81 75 74 71 64 62 61 60 60 62 63 61 61 64 67 68 69 69 65 64 68 75 77 78 77 77 80 82 81 79 81 82 84 86 88 89 91 92 94 96 98 99 101 103 105
199 200 201 200 198 196 196 196 195 192 191 191 190 189 188 187 186 184 183 184 187 190 189 186 183 181 180 179 174 169 166 163 159 151 136 126 120 115 113 111 107 102 96 88 79 77 76 69 64 63 60 57 58 62 63 61 62 67 70 69 68 67 63 64 70 75 77 79 83 86 86 86 84 83 84 85 85 85 86 87 88 90 93 96 98 100 102 105
200 201 201 200 198 196 196 196 195 192 191 192 191 190 188 187 186 185 184 185 188 190 189 187 185 183 184 183 178 174 171 168 165 160 148 137 128 120 118 115 113 110 104 97 88 82 82 77 66 61 62 57 56 58 61 63 63 66 71 71 69 69 67 65 66 72 78 81 86 89 87 87 87 86 86 88 89 89 89 89 89 91 93 96 99 101 103 104
201 202 202 201 198 197 197 197 194 192 191 192 192 191 189 187 188 187 186 187 188 189 190 189 188 186 187 187 182 178 175 172 171 168 162 151 140 130 124 120 117 115 113 108 100 90 85 83 70 55 57 57 56 56 57 63 68 68 68 68 67 68 71 73 68 67 75 82 87 89 87 85 85 86 86 86 87 88 89 90 91 91 92 95 98 102 104 106
202 203 202 201 199 198 198 197 195 193 192 193 193 192 189 189 189 189 188 188 188 189 191 191 191 190 190 190 186 182 180 177 176 174 172 167 159 149 136 128 123 121 122 116 105 95 88 84 73 55 53 56 58 57 54 62 70 73 70 68 66 64 68 76 77 69 71 79 84 87 87 86 86 87 88 87 85 85 85 88 90 91 90 91 94 97 100 103
202 203 203 202 199 198 198 197 195 193 193 194 194 193 191 190 191 191 190 189 189 189 192 194 195 195 193 193 190 186 185 183 181 181 180 179 175 168 155 141 133 130 129 122 110 100 96 93 83 66 54 54 62 63 52 55 67 73 73 70 68 67 66 71 79 77 73 75 80 83 83 85 86 87 88 86 84 85 85 86 88 90 91 89 90 91 94 96
203 204 204 203 200 198 198 198 196 194 194 194 195 194 192 193 193 193 192 190 190 190 193 197 199 198 196 195 193 191 190 189 188 187 187 187 186 182 173 159 149 143 134 126 119 110 104 101 97 87 73 62 63 66 54 43 53 61 66 69 68 70 68 65 71 74 72 74 78 81 81 81 83 84 84 83 83 84 85 84 85 89 93 94 94 93 93 94
203 204 204 203 201 199 199 199 198 195 195 195 196 196 195 195 195 195 193 192 191 192 196 200 201 201 199 197 196 195 195 195 195 195 194 195 194 192 187 175 165 159 147 136 131 125 116 109 105 97 88 84 76 69 53 31 38 48 52 58 66 69 65 58 61 62 65 72 77 82 84 83 82 82 82 80 79 82 84 85 84 84 89 93 96 97 98 99
204 204 205 205 202 199 199 199 199 197 196 197 197 198 198 198 198 197 196 194 194 196 199 202 203 204 202 200 199 199 200 199 200 201 201 202 202 201 198 189 179 172 165 154 147 144 136 123 115 106 95 94 92 84 66 26 22 39 45 48 60 66 60 58 57 51 56 66 71 75 82 84 83 81 81 80 75 74 78 83 85 85 84 86 89 92 95 99
205 206 206 205 203 200 199 199 200 199 198 198 198 199 200 200 201 200 198 197 198 200 202 203 203 205 205 203 203 204 203 202 203 205 206 208 209 208 206 202 194 188 184 175 167 166 161 144 130 126 124 106 91 97 86 24 354 21 36 46 60 64 63 72 69 52 51 59 61 64 71 75 78 78 80 78 71 67 67 72 80 86 86 83 80 80 81 84
207 207 207 206 205 201 199 199 200 201 200 200 200 200 201 203 203 202 201 201 202 203 205 206 205 207 206 205 207 207 207 206 207 208 210 213 215 216 214 212 209 206 204 196 189 189 190 175 162 162 163 158 142 167 242 268 284 320 4 37 60 75 76 74 75 68 64 59 54 56 61 64 67 72 74 70 65 66 63 59 64 76 85 84 76 70 65 63
209 209 208 207 206 202 200 200 201 202 202 202 202 202 203 204 205 205 204 205 206 207 208 209 208 209 209 210 210 210 210 210 210 212 214 216 219 222 222 220 218 218 218 215 209 205 208 206 193 193 200 199 205 218 230 246 258 275 279 281 278 182 146 75 46 47 73 66 52 50 55 55 55 55 55 54 57 64 64 59 54 56 71 79 76 68 59 50
210 210 209 208 206 203 201 200 202 203 203 203 204 204 204 205 206 207 207 207 209 210 211 212 212 212 212 214 214 213 213 214 214 216 217 219 222 224 226 225 224 224 225 226 224 218 217 220 214 212 218 219 222 227 230 235 241 253 261 262 259 249 232 219 251 273 348 60 59 56 56 50 41 27 11 4 33 61 65 59 51 40 48 71 81 78 65 36
211 211 210 209 207 204 202 201 202 204 205 205 205 206 206 206 207 208 209 209 211 212 213 214 215 214 215 217 217 215 215 216 217 219 220 221 223 225 227 228 228 227 227 229 231 228 225 226 225 222 225 229 231 234 234 232 232 238 248 256 261 262 256 245 246 260 278 288 294 321 36 41 20 342 310 298 301 316 50 62 49 29 17 33 61 74 65 23
211 211 211 210 208 205 203 202 203 205 206 206 206 207 208 208 208 209 210 212 213 214 215 216 216 216 218 219 218 217 216 217 219 221 222 224 225 227 229 229 229 230 229 229 232 233 231 230 231 229 229 232 233 236 237 234 234 238 246 253 260 266 266 262 261 266 272 279 292 300 291 275 264 269 277 284 290 291 287 291 316 340 341 349 2 3 350 335
211 212 211 210 209 207 204 203 203 205 207 208 208 208 209 209 210 211 211 213 215 216 218 218 217 218 219 220 220 217 217 219 220 221 223 225 227 228 230 230 230 231 232 231 231 233 234 234 234 233 232 234 236 239 241 240 240 242 247 253 260 269 271 269 271 275 279 281 285 285 278 270 264 264 268 274 283 290 294 296 299 305 316 328 330 325 319 317
212 211 211 211 210 208 206 205 205 206 208 210 210 210 210 211 212 213 213 214 215 217 219 219 219 220 222 222 222 220 219 220 220 221 223 225 227 229 231 232 233 233 233 233 233 234 236 236 236 236 236 238 241 244 245 245 246 248 251 254 258 267 272 272 273 276 279 280 280 278 275 273 272 273 275 277 282 289 296 301 302 303 304 302 303 301 297 297
212 211 211 211 211 210 209 208 208 208 209 211 211 211 212 213 214 215 216 217 218 219 219 219 220 221 223 224 224 223 222 223 223 223 224 225 227 230 231 233 235 235 236 236 236 235 237 238 237 237 238 240 244 249 250 250 252 253 253 255 256 260 265 269 271 274 276 277 276 275 275 273 273 276 279 282 286 291 296 299 297 293 285 276 273 272 274 277
212 211 211 211 212 212 212 211 211 210 211 212 213 213 213 214 215 216 218 220 222 222 222 221 221 222 223 225 225 225 225 225 226 226 226 226 228 230 231 232 234 235 237 237 237 236 237 237 237 239 241 242 244 250 254 255 255 254 254 255 257 259 262 265 267 270 272 275 273 272 273 273 272 274 278 282 287 290 292 292 290 288 285 282 279 275 274 276
214 212 212 212 213 214 214 214 214 213 214 214 215 215 216 216 216 217 219 221 223 224 225 224 223 224 225 226 226 225 225 226 227 228 227 227 228 230 232 232 234 234 235 236 237 237 237 237 238 240 244 245 245 248 252 255 256 255 255 255 256 259 264 268 269 268 269 271 272 272 271 270 269 270 273 277 283 287 288 288 287 287 287 287 285 283 281 283
216 214 214 214 215 216 216 216 217 217 217 217 217 218 218 218 219 219 220 222 223 225 226 226 225 226 227 228 228 227 227 227 227 229 229 229 229 231 232 233 233 234 234 234 235 236 237 239 239 240 243 246 248 248 250 252 253 254 253 253 253 255 260 265 268 269 269 268 269 271 271 269 269 269 271 272 272 274 276 277 279 282 285 286 286 286 286 287
218 217 216 216 217 218 218 219 219 219 219 219 219 219 220 220 221 221 222 223 224 225 227 227 227 228 228 229 230 230 230 229 229 230 230 231 231 231 232 234 234 235 235 235 234 234 236 239 240 242 243 245 246 248 248 249 249 250 250 250 250 249 251 254 259 264 266 266 267 268 270 272 274 275 276 276 274 273 272 274 277 280 282 284 285 286 286 286
220 219 218 219 219 219 220 221 221 221 221 221 221 222 222 222 223 223 224 225 225 226 227 228 228 229 229 230 231 232 232 231 231 231 231 231 232 232 233 235 236 236 236 236 235 235 237 239 240 242 244 243 243 244 246 248 247 248 249 249 249 248 248 249 251 254 259 263 267 268 270 274 279 280 280 281 282 282 282 283 284 284 285 285 285 284 285 285
222 222 221 221 221 222 222 223 222 222 222 222 223 223 224 224 224 225 226 226 227 228 229 229 230 230 230 231 232 233 234 233 232 233 232 233 233 233 234 235 236 237 238 239 237 236 238 240 239 241 243 244 244 244 245 247 248 249 251 251 250 250 250 251 250 249 253 258 262 265 268 272 276 278 278 280 282 283 284 285 284 284 284 283 283 283 283 283
224 224 223 223 224 224 224 225 224 223 223 223 224 225 225 226 226 226 227 228 228 229 230 231 231 232 231 232 232 233 234 234 234 234 235 235 236 236 235 236 237 239 240 240 239 237 239 240 240 242 244 245 246 245 246 248 249 250 252 253 253 253 253 253 252 252 252 253 255 257 260 264 268 271 274 275 276 277 278 279 280 280 279 279 279 280 280 281
226 226 225 225 225 226 227 226 226 225 224 225 225 226 227 227 228 228 229 229 230 230 231 231 232 233 233 233 234 234 235 235 235 236 237 237 239 239 239 239 239 241 242 242 241 239 240 242 242 244 246 247 247 246 247 249 250 250 251 252 253 255 256 256 257 257 256 256 256 256 257 258 262 267 270 270 270 271 272 273 274 275 275 276 276 277 278 279
229 228 228 227 227 228 228 228 228 227 226 226 227 228 228 229 229 230 230 231 230 231 231 232 233 234 234 234 235 236 236 237 237 237 238 239 240 241 241 241 241 243 244 244 244 242 242 244 245 246 248 249 250 249 249 250 252 253 253 253 254 256 258 260 261 262 263 263 262 262 261 261 263 267 268 268 268 269 269 269 270 271 273 274 275 277 278 279
231 231 230 230 230 229 229 230 230 229 228 228 228 229 230 230 231 232 232 232 231 232 232 232 233 233 234 234 235 237 237 238 239 239 239 240 241 241 241 241 242 244 245 246 245 244 244 245 247 248 250 252 252 252 252 253 255 257 257 258 260 260 260 260 262 264 265 265 264 264 265 265 267 268 269 269 269 269 269 269 270 271 272 274 275 277 278 279
232 232 232 232 232 231 231 231 231 231 230 230 230 230 231 231 232 233 234 233 233 233 233 233 233 233 233 234 235 237 238 238 239 239 240 241 242 242 242 242 243 244 246 247 247 246 245 246 248 249 250 252 254 254 255 255 255 257 258 260 262 262 262 261 263 264 264 263 264 265 266 267 268 269 270 271 270 270 270 271 271 271 272 273 275 276 278 279
233 233 233 233 233 232 232 232 232 232 232 231 231 232 232 232 233 236 236 235 234 235 235 235 235 235 234 234 235 236 237 238 238 239 240 241 242 243 244 244 245 246 247 248 249 248 248 247 247 248 250 251 253 254 254 254 254 255 256 258 259 260 262 261 262 263 263 263 264 264 266 267 268 268 269 270 271 271 272 271 271 272 272 273 274 276 277 278
234 233 233 234 234 233 232 232 232 232 232 232 232 233 233 234 236 238 238 236 236 238 238 237 238 238 237 236 236 236 236 237 238 239 239 240 241 243 244 244 245 246 247 249 250 249 249 248 247 248 249 251 252 253 254 255 256 256 256 257 257 259 261 261 260 261 262 263 264 265 266 267 267 267 267 268 269 270 271 271 272 272 273 273 274 275 276 277
236 235 234 235 235 234 233 232 232 233 233 233 233 233 233 234 237 238 239 238 237 239 241 240 240 240 240 239 239 238 238 238 239 239 240 240 241 242 243 244 245 246 247 249 250 249 249 249 249 249 249 250 252 253 254 256 257 257 256 256 256 258 260 261 260 260 261 263 264 266 267 266 265 266 267 267 268 269 270 271 272 272 273 274 275 275 276 276
239 237 236 236 236 236 234 233 233 233 233 233 233 233 234 235 237 239 239 238 238 239 241 242 241 241 241 241 241 241 240 240 240 241 241 242 242 242 243 244 245 246 246 248 249 250 250 250 249 249 250 250 251 253 254 254 255 256 256 255 255 255 257 260 260 260 260 262 264 266 266 266 265 266 267 267 268 268 269 270 271 273 274 274 275 275 276 276
240 239 238 237 237 236 236 235 235 234 233 233 233 233 235 236 237 239 240 239 239 239 240 242 242 243 243 242 242 242 242 242 242 243 243 244 243 243 244 245 245 246 247 248 249 250 251 251 251 250 250 251 251 252 253 253 254 255 255 256 255 255 256 258 259 260 261 262 264 265 266 267 266 266 266 267 267 268 269 270 271 271 272 273 274 275 276 277
241 240 239 239 238 237 236 236 237 237 235 234 233 234 236 237 237 239 240 240 239 239 240 242 243 243 244 244 244 243 243 244 244 245 245 245 245 245 245 246 246 247 248 248 250 251 252 253 253 253 252 252 253 253 254 255 255 255 256 257 259 259 259 259 260 261 262 263 264 264 265 266 267 267 267 266 267 267 268 268 268 269 270 271 272 274 275 276
241 241 241 240 239 239 238 237 237 238 237 236 235 235 236 237 237 238 240 240 240 239 240 241 242 243 244 245 245 245 244 245 245 245 245 246 246 246 246 246 247 248 248 249 250 252 252 253 255 255 254 254 255 255 256 256 257 257 258 259 260 261 261 262 263 262 263 263 263 263 264 266 267 268 267 267 267 267 267 267 268 269 270 271 272 273 274 275
240 241 241 241 241 240 239 238 238 238 238 237 236 236 236 237 237 238 239 240 240 240 240 240 241 242 244 245 245 246 246 245 245 246 246 246 246 245 246 247 247 248 249 250 250 252 253 253 254 256 256 256 257 257 257 258 259 260 260 260 261 261 262 263 264 264 264 264 264 264 264 265 266 268 268 268 269 269 269 269 270 271 272 273 274 274 275 276
240 240 240 241 241 241 240 239 238 238 237 236 237 237 237 237 237 238 239 239 240 240 240 240 241 242 243 244 245 246 246 246 245 245 245 246 246 246 246 247 248 248 250 251 251 252 253 254 254 255 257 258 258 258 258 259 260 261 261 262 263 263 264 264 264 265 265 266 267 267 266 266 268 269 270 271 271 271 272 273 273 274 274 275 275 276 276 276
240 239 240 240 241 241 240 239 239 238 238 237 238 238 237 237 238 238 239 240 240 240 241 241 242 242 243 244 244 245 246 246 246 246 246 246 247 247 247 248 249 250 251 252 253 253 254 255 255 256 257 258 258 259 260 261 261 261 262 263 263 264 265 266 266 267 267 267 268 268 269 269 270 270 271 271 272 272 273 274 275 275 275 276 276 276 276 276
241 240 239 240 240 240 240 239 238 238 238 237 238 238 238 239 239 239 240 241 241 242 242 242 243 243 243 244 245 245 246 246 247 247 247 247 248 248 248 249 250 251 252 253 254 255 256 257 257 257 257 258 259 260 261 261 262 263 263 264 264 264 265 266 266 267 267 268 268 269 269 269 269 269 270 271 271 273 274 274 275 276 276 276 277 277 277 278
241 241 240 240 240 240 240 238 237 237 237 237 238 238 239 239 240 241 241 242 242 243 244 244 244 244 244 245 245 246 246 247 247 248 249 248 249 249 249 250 251 251 252 253 254 255 256 257 258 258 258 259 259 260 261 262 263 264 265 265 266 265 265 265 265 265 266 266 267 268 268 268 268 269 269 271 272 273 274 275 277 277 278 278 279 279 279 280
241 241 241 240 240 240 240 239 237 237 236 236 237 238 239 240 241 242 242 242 243 244 245 245 245 245 245 245 246 246 247 247 248 248 249 249 250 251 251 251 252 253 253 254 254 255 256 257 258 259 259 259 260 260 262 263 264 265 266 266 266 266 265 265 265 266 266 266 266 267 269 269 269 269 271 273 274 275 277 278 279 279 279 279 279 279 279 279
241 241 241 241 241 240 239 239 239 238 236 236 237 237 238 239 240 241 242 243 243 244 245 246 247 247 247 246 247 246 247 247 248 249 250 251 251 252 253 253 253 254 254 255 255 255 256 257 258 259 260 260 261 261 262 263 264 265 264 264 265 265 266 267 268 268 268 268 269 271 272 272 272 272 275 276 277 277 278 279 279 279 279 280 280 279 279 279
242 242 241 241 240 240 239 240 240 240 239 238 237 237 237 238 239 240 241 242 243 244 245 246 247 247 248 248 247 247 247 248 249 250 251 252 252 253 253 253 254 254 254 254 255 256 256 257 258 259 260 261 261 261 261 261 262 262 263 263 264 266 267 269 269 270 270 272 273 273 273 275 276 277 278 278 279 280 281 280 281 281 281 281 281 281 281 281
242 242 242 241 240 240 239 239 240 241 240 239 238 238 238 239 239 240 241 242 243 243 244 245 246 247 248 248 248 248 248 249 250 251 251 251 252 252 252 253 253 254 254 254 255 256 256 257 257 258 259 260 260 260 259 259 260 260 262 263 265 267 268 269 269 270 271 273 274 274 274 276 278 281 280 280 281 282 282 283 282 282 282 282 282 282 281 281
242 242 242 242 240 240 239 239 239 240 240 241 240 239 239 240 240 241 241 242 243 244 245 245 246 247 248 248 249 249 250 250 251 251 251 251 252 252 253 253 253 254 254 254 255 255 256 256 256 257 257 257 258 259 259 259 260 261 263 264 266 268 268 268 269 270 272 273 273 274 275 276 278 280 280 280 282 283 283 283 283 283 283 283 282 282 282 282
241 241 241 242 241 240 239 239 239 239 240 240 241 240 240 240 240 241 241 242 243 244 245 245 246 247 248 249 250 250 251 252 252 252 252 252 252 253 253 253 253 253 254 254 254 255 256 256 256 256 256 257 258 259 260 261 262 263 265 267 268 268 267 268 269 270 272 273 273 274 276 277 278 279 279 279 281 281 282 282 282 282 282 282 282 282 282 282
240 240 240 241 241 240 240 239 239 239 239 240 240 241 241 241 241 241 242 242 243 243 244 245 246 247 248 249 250 251 251 252 252 252 252 253 253 253 253 253 253 254 254 254 255 255 256 256 256 257 257 258 259 260 262 263 264 266 268 269 268 268 269 270 270 271 272 273 273 275 276 276 276 276 277 278 279 279 280 280 280 281 281 281 282 282 282 282
238 239 239 239 240 240 240 239 239 239 239 239 240 240 241 242 242 242 242 243 244 245 245 246 246 247 248 249 250 251 251 252 252 253 253 254 254 254 254 254 254 255 255 255 256 256 257 257 257 258 259 259 260 262 262 263 265 267 269 268 267 269 270 271 271 272 273 274 274 275 275 275 276 276 276 277 278 278 279 279 280 280 281 281 281 282 282 282
Height
10757 10758 10760 10762 10764 10766 10767 10769 10771 10773 10775 10777 10779 10781 10783 10785 10787 10789 10790 10792 10794 10795 10797 10799 10800 10801 10802 10803 10804 10805 10805 10806 10806 10806 10807 10807 10807 10806 10806 10806 10806 10805 10805 10804 10804 10804 10803 10803 10802 10802 10801 10800 10799 10799 10798 10796 10795 10793 10792 10790 10788 10787 10786 10786 10785 10785 10785 10784 10783 10782 10782 10781 10780 10780 10779 10778 10778 10777 10777 10777 10777 10778 10779 10779 10780 10782 10783 10784
10755 10757 10759 10761 10763 10765 10766 10768 10770 10772 10774 10776 10778 10780 10782 10784 10786 10788 10790 10792 10794 10795 10796 10798 10799 10801 10802 10803 10804 10804 10805 10805 10805 10806 10806 10806 10806 10806 10806 10806 10806 10806 10805 10805 10804 10804 10804 10804 10803 10803 10802 10802 10801 10800 10800 10799 10797 10796 10794 10793 10793 10791 10788 10788 10788 10788 10787 10787 10786 10785 10785 10785 10784 10784 10783 10782 10781 10781 10780 10781 10781 10781 10782 10783 10783 10785 10786 10787
10754 10756 10757 10759 10761 10763 10765 10767 10769 10771 10773 10775 10777 10779 10781 10783 10785 10787 10789 10791 10793 10794 10796 10797 10799 10800 10801 10802 10803 10804 10804 10805 10805 10805 10806 10806 10806 10806 10806 10806 10806 10806 10806 10805 10805 10805 10804 10804 10804 10804 10803 10803 10802 10802 10801 10800 10799 10798 10797 10796 10795 10795 10793 10791 10790 10790 10790 10789 10789 10788 10788 10788 10788 10788 10787 10786 10785 10785 10784 10784 10784 10784 10785 10786 10786 10787 10789 10790
10753 10754 10756 10758 10760 10762 10764 10766 10768 10770 10772 10774 10776 10778 10780 10782 10784 10786 10789 10791 10792 10794 10795 10797 10798 10799 10801 10802 10802 10803 10804 10804 10805 10805 10806 10806 10806 10806 10806 10806 10806 10806 10806 10806 10805 10805 10805 10805 10804 10804 10804 10804 10804 10803 10803 10802 10801 10800 10799 10798 10797 10797 10797 10795 10793 10793 10792 10791 10792 10791 10790 10791 10791 10791 10791 10790 10789 10788 10788 10788 10788 10788 10788 10788 10789 10790 10791 10792
10751 10753 10755 10757 10759 10761 10763 10764 10767 10769 10771 10773 10775 10777 10779 10781 10783 10786 10788 10790 10791 10793 10795 10796 10797 10798 10800 10801 10802 10802 10803 10804 10804 10805 10805 10806 10806 10806 10806 10806 10806 10806 10806 10806 10806 10805 10805 10805 10805 10805 10805 10805 10804 10804 10804 10803 10802 10802 10801 10800 10799 10799 10799 10799 10797 10796 10795 10794 10794 10794 10793 10793 10794 10794 10794 10794 10793 10792 10792 10791 10791 10791 10791 10792 10792 10793 10793 10794
10750 10752 10754 10756 10758 10759 10761 10763 10765 10768 10770 10772 10774 10776 10778 10780 10783 10785 10787 10789 10790 10792 10794 10795 10796 10797 10799 10800 10801 10802 10803 10803 10804 10804 10805 10806 10806 10806 10806 10806 10806 10806 10806 10806 10806 10806 10806 10806 10805 10805 10805 10805 10805 10805 10805 10805 10804 10803 10803 10802 10802 10801 10801 10801 10801 10800 10798 10798 10797 10797 10796 10796 10796 10797 10797 10797 10796 10796 10795 10794 10794 10794 10794 10794 10795 10795 10796 10797
10749 10751 10752 10754 10756 10758 10760 10762 10764 10766 10769 10771 10773 10775 10777 10780 10782 10784 10786 10788 10789 10791 10793 10794 10795 10796 10798 10799 10800 10801 10802 10803 10803 10804 10805 10805 10806 10806 10806 10806 10806 10806 10806 10806 10806 10806 10806 10806 10806 10806 10806 10806 10806 10805 10805 10805 10805 10805 10804 10804 10803 10803 10803 10803 10803 10802 10801 10800 10800 10799 10799 10799 10799 10799 10799 10800 10800 10799 10798 10797 10797 10797 10798 10798 10798 10798 10799 10799
10748 10749 10751 10753 10755 10757 10759 10761 10763 10765 10767 10770 10772 10774 10777 10779 10781 10783 10785 10787 10789 10790 10792 10793 10794 10795 10796 10798 10799 10800 10801 10802 10803 10804 10804 10805 10805 10806 10806 10806 10806 10806 10806 10806 10806 10806 10806 10806 10806 10806 10806 10806 10806 10806 10806 10806 10806 10806 10805 10805 10804 10804 10804 10804 10805 10805 10804 10803 10802 10802 10802 10801 10801 10801 10802 10802 10802 10802 10801 10801 10800 10800 10801 10801 10801 10801 10801 10802
10746 10748 10750 10752 10754 10755 10757 10759 10762 10764 10766 10769 10771 10773 10775 10778 10780 10782 10784 10786 10788 10789 10791 10792 10793 10794 10796 10797 10798 10800 10801 10801 10802 10803 10804 10804 10805 10805 10806 10806 10806 10806 10806 10806 10806 10806 10806 10807 10807 10807 10807 10807 10807 10806 10806 10806 10806 10806 10806 10806 10806 10805 10805 10805 10806 10806 10806 10805 10804 10804 10804 10803 10803 10804 10804 10804 10805 10804 10804 10804 10803 10803 10803 10803 10804 10804 10804 10804
10745 10746 10748 10750 10752 10754 10756 10758 10760 10763 10765 10767 10770 10772 10774 10776 10778 10781 10783 10785 10787 10788 10789 10790 10792 10793 10795 10796 10798 10799 10800 10800 10801 10802 10803 10803 10804 10804 10805 10806 10806 10806 10806 10806 10806 10806 10806 10806 10807 10807 10807 10807 10807 10807 10807 10807 10806 10807 10807 10807 10807 10807 10806 10806 10806 10807 10807 10806 10806 10806 10805 10805 10805 10805 10805 10806 10806 10806 10806 10806 10806 10806 10806 10806 10806 10806 10806 10806
10743 10745 10747 10749 10751 10753 10755 10757 10759 10761 10764 10766 10768 10771 10773 10775 10777 10779 10781 10784 10786 10787 10788 10789 10791 10792 10794 10796 10797 10798 10799 10799 10800 10801 10802 10802 10803 10804 10804 10805 10806 10806 10806 10806 10806 10806 10806 10806 10806 10806 10807 10807 10807 10807 10807 10807 10807 10807 10807 10807 10807 10808 10807 10807 10807 10807 10807 10807 10807 10807 10807 10806 10806 10806 10807 10807 10808 10808 10808 10808 10808 10807 10807 10808 10808 10808 10808 10808
10742 10743 10745 10747 10749 10751 10753 10755 10757 10760 10762 10765 10767 10769 10771 10773 10776 10778 10780 10782 10784 10785 10786 10788 10790 10791 10793 10794 10796 10796 10797 10798 10799 10800 10800 10801 10802 10803 10803 10804 10805 10805 10806 10806 10806 10806 10806 10806 10806 10806 10807 10807 10807 10807 10807 10807 10807 10807 10807 10807 10808 10808 10808 10808 10807 10807 10808 10808 10808 10808 10808 10807 10807 10808 10808 10809 10809 10809 10809 10809 10809 10809 10809 10809 10809 10810 10810 10810
10740 10742 10744 10746 10748 10750 10752 10754 10756 10758 10761 10763 10765 10768 10770 10772 10774 10776 10779 10781 10782 10784 10785 10787 10788 10790 10791 10793 10794 10795 10796 10797 10798 10798 10799 10800 10801 10802 10802 10803 10804 10805 10805 10805 10806 10806 10806 10806 10806 10806 10806 10806 10807 10807 10807 10807 10807 10807 10807 10807 10808 10808 10808 10809 10808 10808 10808 10808 10808 10809 10808 10808 10808 10809 10809 10810 10810 10810 10810 10810 10810 10810 10810 10810 10810 10811 10811 10811
10738 10740 10742 10744 10746 10748 10750 10752 10754 10757 10759 10761 10764 10766 10768 10771 10773 10775 10777 10779 10781 10782 10784 10785 10787 10788 10790 10791 10792 10793 10794 10795 10796 10797 10798 10799 10800 10801 10802 10802 10803 10804 10804 10805 10805 10805 10805 10805 10805 10805 10806 10806 10806 10806 10806 10806 10806 10807 10807 10807 10808 10808 10808 10809 10808 10808 10808 10808 10808 10809 10809 10809 10809 10810 10810 10810 10810 10810 10810 10810 10810 10810 10810 10810 10810 10811 10811 10812
10737 10738 10740 10742 10744 10746 10748 10750 10752 10755 10757 10760 10762 10764 10767 10769 10771 10773 10776 10777 10779 10781 10782 10784 10785 10787 10788 10789 10790 10791 10793 10794 10795 10796 10797 10798 10799 10799 10800 10801 10802 10803 10803 10804 10804 10805 10805 10805 10805 10805 10805 10805 10806 10806 10806 10806 10806 10806 10806 10807 10807 10808 10808 10808 10808 10809 10808 10808 10809 10809 10809 10809 10810 10810 10810 10811 10811 10810 10810 10811 10811 10810 10810 10810 10810 10811 10811 10812
10735 10737 10738 10740 10742 10744 10746 10748 10751 10753 10755 10757 10760 10763 10765 10767 10769 10771 10773 10775 10777 10778 10780 10782 10783 10785 10786 10787 10788 10790 10791 10793 10794 10795 10796 10796 10797 10798 10798 10799 10800 10801 10802 10802 10803 10804 10804 10804 10804 10804 10805 10805 10805 10805 10805 10805 10806 10806 10806 10806 10807 10807 10807 10807 10808 10808 10808 10809 10809 10809 10809 10809 10810 10810 10811 10811 10811 10810 10810 10811 10811 10811 10811 10810 10810 10810 10811 10811
10733 10734 10736 10738 10740 10742 10744 10746 10748 10750 10753 10755 10758 10760 10763 10765 10767 10769 10771 10773 10774 10776 10778 10779 10781 10783 10784 10785 10786 10788 10789 10791 10792 10793 10794 10794 10795 10796 10797 10798 10799 10799 10800 10801 10801 10802 10803 10803 10803 10804 10804 10804 10804 10804 10804 10805 10805 10805 10805 10805 10805 10806 10806 10806 10807 10808 10808 10809 10809 10809 10809 10809 10809 10810 10810 10810 10811 10810 10810 10810 10811 10811 10811 10811 10811 10811 10811 10811
10730 10732 10734 10736 10738 10740 10742 10744 10746 10748 10750 10752 10755 10757 10760 10762 10764 10767 10768 10770 10772 10773 10775 10777 10778 10780 10781 10783 10784 10786 10787 10788 10789 10790 10791 10792 10793 10794 10795 10795 10796 10797 10798 10799 10800 10800 10801 10802 10802 10802 10802 10803 10802 10802 10803 10804 10804 10804 10804 10804 10804 10805 10805 10805 10806 10807 10808 10808 10808 10808 10808 10808 10808 10808 10808 10809 10810 10810 10810 10810 10810 10811 10811 10811 10811 10811 10811 10811
10728 10730 10732 10734 10735 10737 10739 10741 10743 10745 10747 10749 10752 10755 10757 10759 10761 10764 10766 10767 10769 10771 10772 10774 10776 10777 10779 10780 10781 10783 10785 10786 10787 10788 10789 10790 10791 10791 10792 10793 10794 10795 10796 10797 10798 10798 10799 10800 10801 10801 10801 10801 10801 10801 10802 10803 10803 10803 10803 10803 10803 10804 10804 10804 10805 10806 10807 10807 10808 10807 10807 10807 10807 10807 10807 10808 10809 10809 10810 10810 10810 10810 10810 10811 10811 10811 10811 10810
10726 10727 10729 10731 10733 10735 10737 10739 10740 10742 10744 10747 10749 10752 10754 10756 10758 10761 10762 10764 10766 10767 10769 10771 10773 10774 10776 10777 10779 10780 10782 10783 10784 10785 10786 10787 10788 10789 10790 10791 10792 10793 10794 10795 10796 10797 10798 10798 10799 10799 10799 10799 10799 10799 10800 10801 10801 10802 10802 10802 10803 10802 10802 10802 10803 10804 10805 10805 10806 10806 10806 10805 10805 10805 10806 10806 10807 10808 10808 10809 10809 10809 10810 10810 10811 10811 10810 10809
10723 10725 10727 10729 10730 10732 10734 10736 10738 10740 10742 10744 10746 10748 10751 10753 10756 10758 10759 10761 10762 10763 10765 10768 10769 10771 10772 10774 10776 10777 10779 10780 10781 10782 10783 10785 10786 10787 10788 10789 10789 10790 10791 10792 10794 10795 10795 10796 10797 10797 10797 10797 10797 10798 10799 10799 10800 10800 10801 10801 10802 10801 10801 10801 10801 10802 10803 10803 10804 10804 10804 10804 10804 10804 10804 10805 10805 10806 10806 10807 10807 10807 10808 10808 10809 10808 10808 10807
10721 10722 10724 10726 10727 10729 10731 10733 10735 10737 10739 10741 10743 10745 10748 10750 10752 10754 10756 10758 10759 10761 10763 10764 10766 10768 10769 10771 10772 10774 10775 10777 10778 10779 10780 10782 10783 10784 10785 10786 10787 10788 10789 10790 10791 10792 10793 10794 10794 10794 10794 10795 10796 10796 10797 10797 10798 10798 10799 10800 10800 10799 10799 10800 10800 10801 10801 10801 10801 10802 10802 10801 10801 10802 10803 10803 10803 10803 10803 10803 10803 10804 10804 10805 10805 10804 10804 10804
10718 10720 10721 10723 10724 10726 10728 10730 10732 10734 10736 10738 10740 10742 10744 10747 10749 10751 10753 10754 10756 10758 10760 10761 10763 10765 10766 10767 10768 10770 10772 10773 10774 10776 10777 10779 10780 10781 10782 10783 10784 10785 10786 10787 10789 10790 10791 10791 10791 10791 10792 10793 10794 10795 10795 10795 10796 10796 10797 10798 10798 10798 10797 10798 10798 10799 10799 10799 10798 10799 10799 10798 10798 10800 10801 10802 10802 10801 10801 10801 10800 10801 10801 10801 10801 10801 10801 10801
10716 10717 10718 10720 10721 10723 10725 10727 10729 10731 10733 10735 10737 10739 10741 10743 10745 10747 10749 10751 10753 10754 10756 10758 10760 10761 10762 10763 10764 10766 10768 10769 10771 10772 10774 10775 10777 10778 10779 10779 10780 10781 10783 10785 10785 10787 10787 10787 10788 10790 10790 10791 10791 10792 10793 10793 10793 10794 10795 10796 10796 10796 10796 10796 10796 10796 10796 10797 10797 10796 10796 10795 10795 10798 10799 10800 10800 10799 10799 10799 10798 10798 10798 10797 10797 10796 10797 10797
10713 10714 10716 10717 10718 10720 10721 10723 10725 10727 10729 10732 10734 10736 10738 10740 10741 10743 10745 10747 10749 10751 10753 10754 10756 10757 10758 10760 10761 10762 10763 10765 10768 10769 10770 10771 10773 10774 10774 10775 10777 10778 10780 10781 10782 10783 10784 10784 10786 10787 10788 10788 10789 10789 10790 10790 10790 10791 10792 10793 10794 10794 10794 10794 10794 10794 10793 10794 10794 10794 10793 10791 10792 10795 10796 10796 10797 10796 10796 10796 10795 10795 10794 10794 10793 10793 10792 10793
10709 10711 10712 10714 10715 10716 10718 10720 10722 10724 10726 10728 10730 10732 10734 10736 10737 10739 10741 10743 10745 10747 10749 10751 10752 10753 10755 10756 10757 10758 10759 10762 10763 10764 10766 10767 10768 10770 10771 10772 10773 10774 10775 10776 10778 10780 10780 10781 10783 10784 10784 10785 10786 10786 10786 10786 10786 10787 10788 10789 10791 10791 10792 10792 10794 10793 10791 10790 10791 10791 10790 10788 10788 10790 10792 10792 10792 10791 10791 10791 10791 10790 10790 10790 10789 10789 10789 10789
10706 10707 10709 10710 10711 10713 10714 10716 10718 10721 10723 10724 10726 10728 10730 10731 10733 10735 10737 10739 10741 10743 10745 10747 10748 10749 10751 10752 10753 10753 10755 10757 10758 10759 10762 10763 10764 10766 10767 10768 10769 10771 10771 10772 10774 10776 10777 10777 10779 10780 10780 10781 10782 10784 10783 10782 10782 10783 10784 10785 10787 10788 10789 10790 10791 10791 10790 10789 10790 10789 10788 10787 10785 10785 10788 10789 10788 10787 10787 10786 10786 10786 10786 10786 10785 10785 10785 10785
10702 10704 10705 10707 10708 10709 10711 10713 10715 10716 10718 10720 10722 10724 10725 10727 10729 10731 10733 10735 10737 10739 10741 10742 10743 10744 10746 10747 10748 10749 10750 10752 10754 10756 10758 10759 10760 10761 10763 10765 10767 10767 10767 10767 10770 10772 10773 10774 10776 10776 10776 10777 10779 10780 10779 10778 10779 10780 10781 10781 10782 10784 10785 10786 10787 10789 10789 10788 10788 10787 10787 10786 10784 10782 10784 10786 10785 10784 10784 10783 10782 10782 10782 10782 10781 10781 10780 10781
10699 10700 10701 10703 10704 10705 10707 10709 10710 10712 10714 10716 10718 10719 10721 10723 10725 10727 10729 10731 10733 10734 10736 10737 10738 10740 10742 10743 10744 10744 10745 10747 10750 10752 10753 10754 10755 10757 10759 10762 10763 10763 10763 10763 10766 10769 10770 10770 10772 10773 10773 10774 10774 10775 10775 10775 10776 10777 10778 10778 10778 10779 10780 10782 10784 10785 10785 10785 10786 10785 10784 10784 10781 10780 10781 10782 10782 10782 10781 10780 10779 10778 10778 10777 10777 10777 10776 10776
10694 10696 10697 10699 10700 10701 10703 10704 10706 10708 10710 10712 10714 10715 10717 10719 10721 10723 10725 10726 10728 10729 10731 10732 10734 10735 10737 10738 10739 10739 10741 10743 10745 10747 10749 10750 10751 10752 10755 10757 10758 10758 10758 10759 10762 10765 10766 10767 10768 10769 10769 10769 10770 10771 10772 10772 10772 10773 10774 10775 10776 10776 10777 10778 10780 10780 10781 10782 10781 10780 10780 10780 10779 10777 10777 10778 10778 10778 10778 10777 10776 10774 10773 10772 10772 10772 10772 10771
10690 10691 10693 10694 10695 10697 10698 10700 10702 10704 10706 10708 10709 10710 10712 10714 10717 10719 10720 10721 10723 10725 10726 10728 10729 10730 10732 10733 10734 10735 10737 10739 10741 10742 10744 10745 10745 10747 10750 10752 10753 10753 10753 10754 10757 10760 10762 10763 10764 10764 10764 10764 10765 10766 10768 10768 10769 10770 10771 10772 10774 10774 10774 10775 10775 10776 10777 10777 10775 10775 10775 10776 10776 10774 10773 10773 10773 10773 10773 10773 10772 10770 10769 10768 10767 10767 10766 10765
10685 10686 10688 10689 10690 10692 10694 10696 10697 10699 10701 10703 10704 10706 10708 10710 10713 10714 10714 10716 10719 10720 10721 10722 10723 10725 10726 10728 10729 10731 10733 10734 10736 10737 10739 10739 10740 10742 10745 10747 10748 10748 10748 10749 10751 10754 10757 10758 10759 10759 10759 10759 10759 10761 10763 10764 10765 10766 10767 10769 10771 10769 10768 10771 10772 10771 10772 10771 10770 10770 10770 10772 10772 10770 10768 10768 10767 10767 10768 10767 10767 10766 10765 10764 10763 10763 10761 10760
10680 10681 10682 10684 10685 10687 10689 10691 10692 10694 10696 10698 10699 10701 10703 10707 10709 10708 10708 10711 10714 10714 10715 10716 10718 10719 10721 10723 10725 10726 10728 10729 10731 10732 10733 10734 10736 10738 10740 10741 10742 10743 10743 10743 10746 10749 10751 10752 10753 10754 10754 10754 10754 10756 10757 10759 10760 10762 10763 10765 10766 10764 10762 10766 10767 10766 10766 10765 10764 10764 10765 10767 10767 10765 10763 10762 10761 10762 10761 10761 10761 10761 10760 10759 10759 10758 10757 10756
10674 10676 10677 10678 10679 10681 10683 10685 10687 10688 10690 10692 10694 10696 10700 10704 10704 10701 10702 10706 10708 10708 10709 10711 10713 10714 10716 10718 10719 10721 10723 10724 10726 10727 10728 10730 10732 10733 10735 10736 10737 10737 10738 10738 10740 10743 10744 10746 10748 10748 10749 10749 10749 10750 10752 10753 10755 10757 10759 10760 10761 10759 10757 10760 10762 10761 10761 10759 10757 10759 10761 10762 10762 10759 10758 10757 10756 10756 10755 10755 10755 10754 10754 10754 10753 10753 10752 10750
10669 10670 10671 10672 10673 10675 10677 10679 10681 10683 10685 10687 10689 10692 10696 10698 10696 10695 10697 10701 10703 10703 10704 10705 10707 10708 10710 10712 10714 10716 10718 10719 10720 10721 10723 10725 10727 10729 10730 10731 10731 10732 10733 10733 10735 10737 10738 10740 10742 10742 10744 10744 10744 10745 10747 10749 10750 10751 10753 10755 10755 10754 10752 10753 10755 10756 10755 10753 10753 10755 10755 10756 10755 10753 10752 10751 10751 10750 10749 10749 10748 10748 10748 10747 10747 10746 10745 10744
10663 10664 10665 10666 10667 10669 10671 10673 10675 10677 10679 10681 10684 10689 10691 10690 10689 10690 10692 10695 10697 10697 10698 10699 10700 10702 10704 10706 10708 10710 10712 10714 10715 10716 10718 10720 10722 10724 10725 10725 10726 10726 10727 10728 10729 10730 10732 10734 10735 10736 10738 10739 10739 10740 10742 10744 10744 10745 10747 10748 10748 10749 10748 10748 10749 10750 10750 10749 10750 10750 10748 10748 10748 10748 10747 10745 10745 10744 10744 10743 10743 10742 10742 10741 10740 10739 10739 10738
10656 10658 10659 10660 10661 10662 10664 10666 10668 10671 10673 10676 10680 10684 10683 10683 10684 10685 10686 10688 10690 10691 10692 10693 10695 10697 10699 10700 10702 10704 10706 10708 10709 10712 10714 10715 10717 10719 10720 10720 10721 10721 10722 10723 10723 10725 10726 10728 10729 10731 10733 10733 10734 10735 10736 10738 10739 10740 10741 10740 10741 10744 10744 10743 10743 10744 10744 10744 10745 10745 10743 10741 10740 10742 10741 10739 10738 10739 10738 10738 10738 10737 10736 10735 10734 10733 10732 10731
10650 10651 10652 10653 10654 10655 10658 10660 10662 10664 10667 10671 10676 10678 10676 10677 10678 10678 10679 10681 10683 10685 10687 10688 10689 10691 10692 10694 10696 10698 10700 10702 10704 10707 10708 10709 10711 10713 10714 10714 10715 10716 10716 10717 10718 10719 10721 10722 10722 10725 10727 10728 10728 10730 10731 10733 10733 10734 10735 10734 10735 10737 10738 10737 10737 10739 10739 10738 10739 10739 10737 10734 10733 10735 10734 10731 10732 10733 10733 10732 10732 10732 10731 10730 10729 10728 10726 10725
10643 10643 10644 10646 10646 10648 10651 10654 10656 10658 10661 10666 10670 10670 10670 10670 10671 10672 10673 10675 10677 10679 10681 10682 10684 10685 10686 10688 10690 10692 10694 10697 10699 10700 10702 10704 10706 10707 10708 10708 10710 10710 10710 10712 10712 10713 10715 10716 10717 10718 10720 10721 10722 10724 10726 10726 10726 10727 10729 10729 10729 10731 10731 10730 10730 10733 10733 10732 10733 10733 10731 10729 10728 10727 10725 10724 10725 10726 10725 10725 10725 10726 10726 10725 10724 10723 10721 10719
10635 10636 10637 10638 10638 10641 10644 10647 10649 10652 10657 10661 10662 10662 10663 10664 10665 10666 10667 10669 10671 10673 10675 10676 10677 10679 10680 10682 10684 10686 10688 10691 10693 10694 10696 10698 10699 10701 10702 10703 10704 10704 10704 10706 10707 10708 10709 10710 10711 10712 10713 10715 10717 10718 10719 10719 10719 10721 10722 10723 10723 10724 10725 10724 10724 10726 10726 10724 10725 10726 10725 10724 10722 10719 10717 10718 10719 10718 10718 10718 10719 10719 10719 10718 10717 10716 10715 10713
10628 10629 10630 10630 10631 10633 10636 10639 10643 10647 10650 10653 10653 10654 10656 10657 10658 10659 10661 10663 10665 10667 10669 10670 10671 10673 10674 10676 10678 10680 10682 10684 10686 10688 10690 10691 10693 10695 10697 10696 10697 10698 10698 10699 10701 10702 10702 10703 10706 10707 10706 10709 10711 10711 10712 10713 10714 10714 10715 10716 10716 10717 10718 10718 10717 10719 10719 10717 10718 10718 10717 10717 10715 10711 10710 10711 10711 10710 10711 10711 10712 10712 10711 10710 10710 10708 10708 10707
10620 10622 10623 10622 10623 10625 10628 10632 10636 10639 10643 10645 10646 10646 10648 10650 10651 10652 10654 10657 10658 10660 10662 10664 10665 10667 10668 10670 10672 10674 10675 10677 10679 10681 10683 10685 10687 10689 10690 10690 10691 10692 10692 10693 10695 10696 10696 10697 10699 10701 10701 10703 10704 10704 10705 10707 10707 10708 10709 10710 10710 10710 10711 10710 10710 10711 10711 10711 10711 10710 10709 10710 10708 10704 10702 10703 10703 10703 10704 10704 10704 10704 10704 10703 10702 10701 10700 10699
10613 10614 10614 10615 10616 10617 10620 10625 10629 10631 10635 10637 10637 10638 10641 10643 10644 10646 10648 10650 10652 10653 10655 10657 10659 10660 10662 10664 10666 10667 10669 10671 10673 10675 10677 10679 10680 10682 10683 10684 10685 10685 10686 10688 10689 10689 10690 10690 10692 10694 10695 10697 10698 10698 10699 10700 10700 10701 10702 10702 10702 10704 10704 10703 10703 10703 10703 10705 10704 10702 10701 10702 10701 10697 10695 10696 10696 10696 10697 10697 10697 10697 10697 10696 10695 10694 10693 10692
10605 10605 10605 10607 10609 10611 10614 10619 10621 10623 10626 10628 10629 10631 10634 10635 10637 10639 10641 10643 10645 10646 10648 10650 10652 10653 10655 10657 10659 10661 10662 10664 10667 10668 10670 10672 10674 10675 10676 10677 10678 10679 10680 10682 10683 10683 10683 10684 10685 10686 10688 10690 10691 10691 10693 10693 10693 10693 10694 10695 10695 10696 10696 10696 10696 10696 10697 10698 10698 10695 10695 10695 10695 10692 10689 10688 10690 10691 10691 10691 10691 10691 10690 10689 10687 10686 10685 10684
10595 10595 10597 10599 10602 10604 10609 10611 10613 10614 10618 10620 10621 10624 10627 10628 10630 10632 10633 10635 10637 10639 10640 10642 10644 10646 10648 10650 10652 10654 10656 10657 10660 10662 10663 10665 10667 10668 10670 10671 10672 10673 10674 10675 10676 10677 10677 10677 10678 10679 10681 10682 10683 10684 10686 10686 10685 10686 10687 10687 10687 10688 10688 10688 10689 10690 10690 10691 10692 10690 10688 10687 10688 10686 10683 10683 10684 10684 10685 10685 10684 10683 10682 10681 10680 10679 10677 10676
10585 10586 10588 10591 10594 10597 10601 10603 10604 10607 10610 10612 10614 10617 10619 10621 10623 10624 10625 10628 10630 10632 10633 10635 10637 10638 10641 10643 10645 10647 10649 10650 10652 10654 10656 10658 10660 10661 10662 10664 10665 10666 10668 10669 10669 10670 10670 10671 10672 10672 10673 10674 10675 10678 10679 10678 10678 10679 10680 10680 10680 10681 10681 10680 10681 10682 10682 10683 10686 10684 10681 10678 10679 10681 10679 10677 10676 10678 10679 10678 10677 10676 10675 10674 10673 10671 10670 10669
10575 10576 10578 10581 10584 10589 10593 10596 10596 10599 10602 10604 10606 10609 10611 10613 10615 10616 10618 10620 10622 10624 10625 10627 10629 10631 10633 10635 10636 10639 10641 10643 10645 10647 10649 10651 10652 10654 10655 10656 10658 10659 10661 10662 10662 10663 10663 10665 10666 10666 10666 10667 10668 10670 10672 10671 10672 10672 10672 10673 10673 10674 10675 10674 10674 10674 10674 10676 10678 10677 10674 10670 10669 10673 10674 10670 10668 10670 10670 10670 10669 10668 10667 10666 10665 10663 10662 10661
10564 10567 10568 10570 10575 10580 10585 10587 10588 10590 10593 10595 10599 10602 10603 10605 10607 10609 10611 10613 10614 10616 10617 10620 10622 10623 10624 10626 10627 10630 10633 10635 10638 10640 10642 10643 10644 10646 10647 10649 10651 10652 10653 10654 10656 10656 10656 10658 10660 10659 10659 10660 10661 10663 10664 10664 10665 10666 10666 10667 10667 10668 10669 10667 10666 10666 10667 10670 10669 10667 10669 10665 10661 10664 10665 10661 10660 10662 10661 10660 10660 10659 10658 10657 10655 10654 10652 10651
10553 10556 10556 10559 10565 10570 10574 10577 10579 10581 10583 10586 10590 10593 10595 10597 10599 10601 10603 10605 10606 10608 10610 10612 10614 10615 10616 10617 10619 10622 10625 10627 10630 10632 10633 10635 10636 10638 10640 10641 10643 10645 10646 10647 10648 10648 10648 10650 10652 10652 10652 10653 10654 10655 10657 10657 10658 10660 10660 10661 10662 10662 10661 10660 10660 10659 10660 10663 10661 10659 10662 10662 10657 10656 10655 10653 10653 10653 10652 10651 10650 10649 10648 10646 10644 10643 10642 10640
10541 10544 10546 10548 10553 10558 10562 10566 10570 10572 10575 10577 10581 10584 10587 10588 10591 10593 10595 10596 10599 10601 10603 10604 10606 10607 10608 10609 10611 10614 10618 10620 10622 10623 10624 10627 10629 10630 10632 10634 10636 10637 10638 10639 10641 10641 10641 10643 10645 10645 10645 10646 10647 10648 10649 10650 10651 10653 10654 10655 10655 10653 10652 10653 10654 10653 10653 10654 10654 10652 10654 10655 10654 10650 10647 10646 10647 10645 10643 10643 10641 10640 10638 10635 10634 10632 10630 10629
10528 10531 10534 10537 10541 10546 10550 10555 10559 10562 10565 10568 10572 10575 10577 10578 10582 10584 10586 10588 10590 10593 10594 10596 10598 10599 10600 10602 10605 10608 10610 10612 10613 10614 10616 10619 10621 10622 10624 10626 10628 10629 10630 10632 10633 10634 10634 10635 10637 10637 10637 10639 10641 10641 10641 10642 10644 10647 10649 10648 10644 10642 10643 10645 10646 10645 10645 10646 10646 10646 10646 10647 10648 10645 10640 10640 10640 10638 10636 10635 10633 10631 10629 10626 10624 10622 10619 10618
10514 10518 10522 10525 10530 10534 10537 10542 10547 10550 10556 10560 10562 10564 10566 10568 10572 10574 10576 10580 10582 10584 10586 10587 10589 10590 10592 10595 10598 10600 10602 10603 10604 10605 10607 10610 10612 10613 10616 10618 10620 10621 10623 10624 10625 10626 10627 10627 10629 10630 10629 10632 10635 10634 10633 10634 10637 10643 10644 10638 10633 10634 10636 10636 10636 10637 10637 10637 10637 10638 10638 10637 10638 10636 10633 10632 10630 10629 10627 10626 10624 10622 10619 10616 10614 10611 10609 10607